RH
18 16 14 13 12 10 9 9 9 9 10 10 11 10 11 12 86 98 100 100 100 100 95 83 100 100 100 100 100 100 100 100 100 100 100 100 100 100 100 100 100 100 100
15 13 10 9 8 8 7 7 7 7 8 10 11 9 8 10 13 19 96 100 100 100 100 100 100 100 100 100 100 100 100 100 100 100 100 100 100 100 100 100 100 100 100
13 11 9 8 8 7 6 5 5 5 5 6 8 9 8 9 13 14 20 100 100 100 74 85 100 100 100 100 100 100 100 100 100 100 100 100 100 100 100 100 100 100 100
12 10 8 6 5 4 4 4 4 4 4 4 5 6 8 10 12 16 22 100 99 100 89 99 100 100 100 100 100 100 100 100 100 100 100 100 100 100 100 100 100 100 100
12 8 5 4 4 3 3 3 3 4 4 4 4 5 7 10 13 16 54 100 100 100 100 100 100 100 100 100 100 100 100 100 100 100 100 100 100 100 98 100 100 100 100
6 5 4 3 3 3 3 3 3 4 4 4 4 5 7 8 13 37 96 100 100 100 100 100 100 100 100 100 97 100 100 100 100 100 100 100 100 100 100 100 91 83 91
4 3 3 3 3 3 2 3 3 3 4 5 5 6 7 9 12 25 100 100 100 100 100 100 100 88 100 100 100 100 100 100 100 100 100 100 100 100 100 100 100 100 100
3 3 3 3 2 2 3 2 2 3 4 5 5 6 7 9 13 14 35 79 96 96 100 100 88 82 100 100 100 100 95 100 100 100 100 100 100 100 100 100 100 100 88
5 4 4 4 3 2 2 2 2 2 3 5 4 6 8 10 15 16 23 62 100 100 100 100 100 100 100 100 100 100 94 97 100 100 100 100 100 100 100 100 100 100 100
6 4 3 3 2 2 2 2 2 2 3 4 4 7 9 12 18 18 25 100 100 100 100 100 100 100 100 100 100 100 100 100 100 100 100 100 100 100 100 100 100 100 100
5 3 2 2 2 2 2 2 2 2 2 4 5 8 10 17 20 19 33 100 100 100 100 100 100 100 100 100 99 84 97 100 100 100 100 100 100 98 98 100 100 100 100
5 4 2 2 2 2 2 2 2 2 2 4 5 9 13 20 20 23 54 100 100 100 100 100 100 95 100 100 89 70 79 100 100 100 100 98 96 100 100 100 100 100 100
6 4 2 2 2 2 2 2 2 2 3 5 8 11 16 21 25 30 71 100 100 100 100 100 100 100 100 100 100 96 100 100 100 96 82 90 99 100 100 100 100 100 99
6 4 2 2 2 2 2 2 2 4 5 8 12 15 18 23 30 54 100 100 100 100 100 100 100 100 100 100 100 100 100 100 100 100 100 100 78 67 93 98 96 100 96
6 3 2 2 2 2 3 3 5 8 10 13 17 18 22 26 40 68 100 100 100 100 100 100 100 100 100 98 100 100 100 100 94 76 87 88 82 70 84 98 100 97 98
5 3 3 3 3 4 4 7 11 14 21 20 22 24 28 26 35 40 99 100 99 100 100 100 100 100 100 100 100 100 100 99 89 96 89 87 89 81 88 88 83 99 100
6 4 5 4 6 6 10 13 22 22 24 29 29 26 25 25 40 59 100 100 100 100 100 100 100 100 99 100 100 100 89 85 86 71 82 90 66 63 55 70 78 68 69
11 12 12 9 9 10 14 18 29 37 36 38 37 40 31 34 48 74 100 100 100 100 100 100 100 93 98 99 98 95 100 92 77 79 96 73 73 59 62 64 62 62 82
16 22 30 35 43 30 45 39 36 44 30 31 37 32 32 67 37 52 100 100 100 90 84 100 100 100 100 99 100 93 65 56 85 89 75 68 60 44 44 58 89 97 82
100 100 100 100 93 74 40 52 63 67 39 49 51 51 64 45 58 63 75 74 80 87 88 100 100 100 99 95 83 70 71 80 70 67 58 60 56 55 58 68 79 64 59
100 100 100 100 100 100 90 67 38 52 49 61 82 89 100 66 72 98 67 74 96 97 88 84 78 72 92 98 86 65 63 67 63 69 78 72 61 70 57 67 59 61 62
100 100 100 100 100 100 100 98 88 68 65 59 82 91 74 47 64 74 53 57 76 83 100 100 100 100 100 70 78 72 58 68 71 70 66 60 63 53 57 52 57 50 50
100 100 100 100 100 100 100 100 100 95 76 62 54 57 55 46 59 59 66 79 97 100 99 96 94 78 60 94 80 78 70 65 72 59 76 51 43 45 48 49 48 50 61
76 86 93 100 100 100 100 100 91 84 82 64 65 65 69 72 52 48 58 67 83 84 86 73 69 67 76 73 66 62 68 69 61 85 69 58 52 46 51 50 59 66 71
69 81 88 100 100 100 100 100 100 99 90 77 72 70 68 80 82 74 60 58 53 61 51 62 70 75 67 60 68 76 60 48 58 59 62 53 47 48 56 67 74 74 74
96 78 76 84 92 98 96 100 99 85 84 86 85 76 68 73 83 88 78 72 66 66 66 77 65 54 58 68 66 51 56 60 52 52 49 50 61 70 75 70 80 75 63
Wind_Speed
90 91 92 90 90 92 93 92 90 86 89 89 90 88 83 80 92 84 77 61 62 64 67 63 64 64 61 58 60 56 55 55 53 51 48 48 47 46 46 46 45 47 50
84 88 88 86 86 87 89 87 87 84 85 88 89 90 85 80 87 88 87 74 65 63 62 61 63 59 60 62 61 58 58 57 56 55 52 51 51 52 53 54 55 55 55
82 84 85 84 85 88 88 87 86 84 85 88 90 90 85 82 83 85 86 80 70 70 56 62 61 65 64 63 62 61 59 58 58 58 57 56 57 56 58 59 59 61 61
81 82 84 84 81 80 78 75 76 74 76 80 85 91 88 84 84 91 91 85 72 64 64 58 67 68 62 61 57 55 57 58 57 57 58 57 58 58 58 60 60 61 63
86 86 80 76 74 71 71 68 68 65 68 74 79 87 90 90 88 94 97 89 75 63 63 57 57 58 65 61 59 54 58 60 56 56 56 58 59 60 59 60 62 64 66
78 73 70 67 64 63 65 65 63 63 65 67 72 80 90 92 92 97 96 95 80 65 69 69 60 54 54 61 57 54 60 58 59 57 57 57 59 58 59 64 64 66 68
66 62 59 56 55 51 55 53 59 59 62 64 68 73 89 93 95 102 101 99 85 82 75 68 64 55 54 57 51 59 61 59 60 60 60 61 64 63 65 66 68 69 71
53 50 48 50 50 46 49 46 50 53 60 63 65 70 88 95 94 98 102 108 93 78 68 57 58 56 59 52 58 59 58 56 56 60 61 61 65 67 68 69 72 75 75
42 40 40 43 45 41 42 42 43 49 55 59 61 70 88 95 94 101 100 97 84 78 65 72 63 56 59 59 58 57 57 52 57 63 62 64 66 68 71 73 76 78 80
42 38 35 37 37 36 36 38 40 46 49 56 59 70 88 94 95 100 97 101 91 72 67 62 59 61 65 67 61 61 55 58 64 65 68 72 70 70 71 74 78 83 83
36 34 30 31 28 29 31 33 33 38 44 55 63 75 90 94 95 97 96 96 84 72 60 64 65 64 68 68 64 62 61 64 64 60 65 70 71 74 73 78 83 86 86
31 29 24 21 20 23 26 25 28 36 46 57 64 78 94 98 94 91 96 96 83 71 69 75 70 66 64 66 58 61 63 60 60 61 68 73 81 78 78 82 85 87 86
27 23 19 16 15 19 19 23 29 37 50 58 70 84 98 92 88 90 88 86 80 85 72 81 73 72 68 61 58 59 60 59 60 69 70 69 71 75 77 79 79 80 84
20 17 12 10 11 14 20 25 32 42 53 63 79 94 99 97 91 88 85 85 90 84 81 76 71 69 71 62 63 63 65 64 67 65 68 68 77 82 81 84 86 87 91
17 11 4 6 12 17 23 31 40 49 58 68 80 96 99 95 97 95 92 96 85 77 76 71 74 66 68 65 64 63 70 75 78 83 77 78 81 87 88 93 94 94 98
14 7 5 9 16 25 31 45 56 65 68 75 88 98 102 98 90 91 89 82 84 76 71 73 72 66 65 69 69 75 75 78 77 79 82 84 88 93 95 90 89 92 96
13 12 12 14 26 34 47 60 65 69 75 77 85 92 93 91 91 91 90 89 85 79 79 71 76 75 73 73 74 72 80 84 84 87 84 85 87 82 84 86 88 93 97
19 20 18 21 30 39 55 65 70 75 84 89 94 98 97 92 89 91 93 97 87 92 85 80 77 82 81 82 81 83 84 85 88 87 87 90 90 89 88 90 95 98 103
23 28 29 31 34 44 59 63 69 72 78 87 90 90 92 90 90 89 96 89 88 83 79 82 87 83 83 83 86 86 87 87 88 90 92 95 97 93 90 94 99 104 99
32 38 34 40 41 46 55 67 70 71 77 79 81 82 84 80 75 75 80 78 77 83 86 83 83 81 80 79 77 77 79 82 86 85 90 90 93 91 94 98 97 92 97
28 31 32 37 46 46 48 58 66 71 76 79 76 73 67 79 77 71 75 75 79 79 79 83 77 77 73 64 69 79 82 82 86 88 89 90 91 95 95 93 93 97 102
31 32 31 33 41 48 47 45 58 66 73 80 83 78 78 82 77 73 75 76 76 75 67 72 66 62 67 77 78 79 78 82 88 91 90 93 93 92 92 95 98 101 106
32 31 34 28 32 42 46 52 50 57 65 70 71 75 78 79 76 74 71 70 69 70 72 72 72 77 81 73 74 78 83 88 89 87 84 88 87 91 95 98 102 104 105
32 32 38 32 27 32 43 45 53 53 57 61 67 68 67 68 73 74 73 72 72 73 75 81 81 82 79 78 83 86 87 90 86 89 93 90 93 95 98 100 100 100 103
30 34 40 37 34 33 34 45 47 45 53 59 60 65 68 68 67 71 76 79 80 82 83 81 83 84 87 87 89 87 88 89 92 92 92 95 94 94 95 94 97 102 107
31 28 38 44 40 40 37 38 42 50 52 56 61 63 65 67 69 71 74 76 77 79 83 85 85 85 84 85 84 85 87 87 86 87 89 87 87 86 90 95 101 108 115
Wind_Direction
276 274 272 270 268 267 266 263 260 256 252 248 244 242 235 224 218 220 220 226 235 242 243 242 247 252 250 252 254 255 260 263 266 268 271 272 274 276 278 280 282 284 286
275 273 271 269 268 267 265 263 260 255 249 245 240 239 234 225 220 218 221 222 225 238 231 240 242 243 250 252 254 257 259 262 265 266 268 269 272 275 277 280 282 285 286
277 276 275 274 273 270 266 263 259 253 248 242 235 233 231 223 217 214 216 214 220 228 234 231 238 245 253 250 250 254 257 261 264 266 266 269 271 273 275 278 282 285 286
282 282 281 279 275 271 266 262 256 250 243 237 232 228 225 220 214 210 212 208 216 226 237 242 245 244 247 244 247 253 256 259 262 265 267 269 270 272 275 277 280 284 286
287 285 282 278 274 268 264 258 253 246 239 233 226 222 219 215 211 208 205 204 210 222 227 230 239 239 242 247 250 252 257 259 261 264 268 270 271 273 275 278 279 282 284
287 284 280 276 270 265 260 253 246 241 236 230 223 217 212 210 205 203 199 202 207 215 223 219 227 238 237 241 245 253 257 256 260 264 267 269 271 273 275 274 278 281 282
285 281 277 274 270 263 258 251 245 238 233 227 221 212 208 204 201 202 199 202 207 212 216 223 227 229 235 239 244 248 251 253 262 264 266 269 272 273 277 280 281 282 283
288 283 278 275 269 261 255 251 243 236 229 223 216 207 204 199 198 199 200 206 208 211 218 231 225 230 239 238 246 246 246 252 258 263 267 272 273 275 277 277 278 279 284
294 288 280 273 267 262 252 249 242 231 225 218 211 201 198 195 195 196 200 201 205 213 221 225 227 235 235 237 240 249 251 253 256 259 265 268 272 276 278 278 280 283 285
304 300 289 274 268 259 250 246 235 227 220 211 202 196 194 190 193 195 198 198 204 210 213 220 228 232 234 237 246 247 252 255 257 261 265 267 270 274 278 282 284 285 286
300 299 287 277 267 254 246 240 230 218 210 201 195 190 188 186 192 194 197 200 203 209 213 219 227 228 233 240 246 251 254 257 262 263 266 268 271 274 280 282 282 284 287
310 305 296 281 265 246 235 226 212 203 197 193 188 184 181 187 190 194 197 203 206 210 218 220 227 230 236 243 251 255 255 256 259 265 270 271 272 277 279 282 283 286 289
314 312 301 282 247 226 214 204 196 189 186 183 181 180 182 185 188 195 199 205 208 214 220 223 228 234 237 243 248 247 247 256 268 269 272 276 276 277 278 280 283 285 287
325 320 303 260 222 201 189 187 177 175 175 176 176 179 181 186 189 193 190 201 209 213 216 225 230 233 237 240 246 248 247 259 269 269 271 273 278 277 279 284 286 287 290
340 337 323 206 185 174 172 165 163 162 166 170 175 178 182 189 192 192 198 203 209 215 216 223 231 233 235 239 245 248 250 256 262 270 279 281 282 283 283 286 284 286 289
356 40 81 157 157 156 155 153 157 160 163 171 175 179 186 191 194 197 200 202 209 208 216 220 229 230 233 240 247 251 256 262 269 274 277 278 282 284 288 287 288 289 289
35 68 93 138 147 154 154 155 157 163 165 172 177 185 189 194 197 196 197 205 209 209 218 221 228 234 240 244 250 258 261 265 270 274 274 277 282 286 288 290 292 293 295
72 78 91 129 152 157 158 160 162 168 171 175 180 186 189 195 198 198 202 209 213 216 221 231 234 240 244 250 255 260 264 267 270 272 275 280 281 291 293 294 295 298 299
92 96 104 120 136 154 157 164 169 174 179 181 185 190 191 198 200 203 206 212 219 224 231 233 238 242 248 253 258 262 266 266 268 273 276 278 285 291 294 295 295 297 298
87 108 123 134 149 164 171 171 173 178 182 182 186 193 198 201 206 210 212 218 224 226 230 235 241 246 250 255 260 261 263 267 272 279 282 285 290 291 296 296 296 297 298
132 147 149 157 159 167 174 183 185 184 185 183 188 191 192 201 207 211 215 219 223 228 233 238 242 248 254 255 263 263 268 271 275 280 286 289 292 293 293 294 296 299 301
151 161 162 165 169 173 175 188 191 192 191 194 193 196 203 208 209 213 218 221 225 228 233 237 243 249 256 258 261 264 269 274 279 283 286 290 292 292 293 295 297 298 300
170 175 173 170 185 183 190 190 193 199 203 202 204 207 210 214 217 219 223 226 229 232 236 238 245 249 255 259 263 268 273 277 281 285 286 293 292 294 295 297 299 301 303
186 190 184 180 190 193 195 205 204 207 205 207 207 211 216 222 226 228 231 231 233 235 243 243 247 251 257 260 266 272 276 279 282 285 289 292 294 296 297 299 301 302 301
213 202 194 195 194 199 205 207 210 207 214 212 214 218 220 224 229 233 235 237 240 243 247 249 253 256 261 269 271 274 280 283 283 285 288 292 293 297 299 301 301 300 300
237 229 214 208 207 211 210 213 217 220 224 224 221 222 225 229 232 236 239 243 249 252 254 256 261 263 267 272 277 280 281 282 287 289 290 295 298 299 299 300 300 299 298